OPS 4682 DEB, 38379

Orbit data source: Space-Track

OPS 4682 DEB, 38379 is space debris in LEO originally from a launch on Sat, 03 Apr 1965 UTC launched from the Air Force Western Test Range (AFWTR). Debris objects in space refer to the collection of defunct objects orbiting the Earth. Examples of debris include non-operational satellites, rocket bodies, and fragments generated from explosions, collisions, or faulty payload assembly.

Loading next visibility...
Identifier
38379, 1965-027CG
Orbit
LEO
Country
Flag of USUS
Related business
Manufacturer
Unknown
Mission
Spacecraft
Bus & Motor
Unknown
Mass
Unknown
Launch date (UTC)
1965-04-03 (61 years ago)
Launch vehicle
Unknown
Launch site
Air Force Western Test Range (AFWTR)
Object type
Payload
Rocket body
Debris
Shape & HBR
Unknown shape, 0.1 m
Radar Cross Section
Small (<0.1 m²)

Expand to show TLE details & history
Last TLE update: 3 days ago

TLE from 3 days ago
0 OPS 4682 DEB
1 38379U 65027CG  26101.66048447 -.00000154  00000-0 -53430-3 0  9999
2 38379  90.2419   2.6024 0029955  53.0836 307.3024 13.00497920623810
Epoch: 2026-04-11T15:51Z
TLE epoch observation values (Epoch: 2026-04-11T15:51:05.858Z)
Latitude
-0.00002°
Longitude
-75.04861°
Altitude
1,249.196 km
Speed
7.237 km/s
True Right ascension
00h 10m 24s
True Declination
0° 00' 00"
Sunlit
Object was in daylight at epoch
Visualization orbit readout
Latitude
Unknown
Longitude
Unknown
Altitude
Unknown
Speed
Unknown
Apparent Right ascension
Unknown
Apparent Declination
Unknown
Sunlit
N/A
Visualization observer readout
Local Sidereal Time
23:00:49
Azimuth
Unknown
Elevation
Unknown
Doppler factor
Unknown
Orbital elements
Apogee altitude
1,280.134 km
Perigee altitude
1,234.391 km
Semi-major axis
7,635.4 km
Eccentricity
0.003
Inclination
90.2419°
RAAN
2.6024°
Arg. of periapsis
53.0836°
True anomaly
307.02874°
Mean anomaly
307.3024°
Eccentric anomaly
307.16563°
Mean motion
3.25309 °/min
Orbital period
110.66 mins
BSTAR
-0.0005343
Loading maneuver chart data...
Computing Atmospheric mass density...
Loading historical data...
Loading historical data...
Loading historical data...
Loading historical data...
Loading historical data...
Loading historical data...
Loading historical data...

Documentation

Showing up to 5 results
|